Location: 81360 Arifat, France
(43.7204°N, 2.3408°E)
Time: 10:28:03
(UTC+01:00)

Courier 1B - Pass Details

Date: 07 December 2025
Orbit: 962 x 1208 km, 28.3° (Epoch: 18 January)

Event Time Altitude Azimuth Distance (km) Brightness Sun altitude
Exits shadow 05:12:11 19° 183° (S) 2,182 9.3 -31.4°
Drops below altitude 10° 05:16:14 10° 146° (SE) 2,800 10.3 -30.7°
Sets 05:19:50 0° 129° (SE) 3,797 11.3 -30.0°
